Zurück zum Katalog

STARLINK-30929

AktivKommunikationVLEO
NORAD 58386·PAYLOAD·🇺🇸 United States

Gestartet Nov 20, 2023 von Vandenberg Space Force Base

Loading…

Nächste Überflüge (nächste 24 Stunden)

TLE

AktuellSource: CelesTrak SupGP

Epoche: Sep 14, 2026, 13:38 UTC

1 58386C 23178N   26257.56854167 -.00000687  00000+0 -20303-4 0  2576
2 58386  53.1591 199.7937 0001439  91.2349 228.3516 15.34379113    11

Verfolge STARLINK-30929 in Echtzeit mit AllMySat

Download on the App Store